Regional Weather Roundup
Issued by NWS

Home | Current Version | Previous Version | Text Only | Print | Product List | Glossary Off
Versions: 1 2 3 4 5 6 7 8 9 10 11 12 13 14 15 16 17 18 19 20 21 22 23 24 25 26 27 28

000
ASUS45 KPSR 300410
RWRAZ

ARIZONA HOURLY REGIONAL WEATHER ROUNDUP
NATIONAL WEATHER SERVICE PHOENIX AZ
900 PM MST FRI APR 29 2016

NOTE: FAIR INDICATES FEW OR NO CLOUDS BELOW 12,000 FEET WITH NO
SIGNIFICANT WEATHER AND/OR OBSTRUCTIONS TO VISIBILITY.

AZZ001>003-036-300500-
NORTHWEST ARIZONA

CITY           SKY/WX    TMP DP  RH WIND       PRES   REMARKS
BULLHEAD CITY  CLEAR     75  36  23 SE7       29.70F
KINGMAN        CLEAR     59  40  49 S6        29.81S
$$

AZZ004>008-015-016-018-300500-
NORTH CENTRAL ARIZONA

CITY           SKY/WX    TMP DP  RH WIND       PRES   REMARKS
GRAND CANYON   MOCLDY    41  33  73 CALM      29.93R
WILLIAMS       CLOUDY    43  28  56 SW5       30.01S
PRESCOTT       PTCLDY    51  34  52 SW8       29.90R
FLAGSTAFF      MOCLDY    38  37  97 SW3       29.95R
PAYSON         CLOUDY    46  43  87 VRB6      29.95F
PAGE           CLOUDY    57  34  41 W9G16     29.83R
$$

AZZ009>014-017-300500-
NORTHEAST ARIZONA

CITY           SKY/WX    TMP DP  RH WIND       PRES   REMARKS
WINSLOW        CLOUDY    51  38  60 SW20      29.89R
SAINT JOHNS    MOCLDY    43  37  79 SW8       29.91R
WINDOW ROCK    CLOUDY    38  32  79 CALM      29.91R
SHOW LOW       MOCLDY    41  34  75 SW10      29.97R
$$

AZZ023-300500-
GREATER PHOENIX AREA

CITY           SKY/WX    TMP DP  RH WIND       PRES   REMARKS
PHOENIX        PTCLDY    75  35  23 SW12      29.76R
BUCKEYE        CLEAR     72  32  23 SW8       29.78S
LUKE AFB       CLEAR     74  37  26 SW10      29.76R
DEER VALLEY    PTCLDY    73  35  25 SW10      29.77R
SCOTTSDALE     PTCLDY    74  34  23 SW7       29.79R
MESA-GATEWAY   PTCLDY    72  36  26 SW8       29.79S
CHANDLER       CLEAR     72  34  25 SW8       29.78S
$$

AZZ027-028-300500-
SOUTHWEST MARICOPA COUNTY AND PINAL COUNTY

CITY           SKY/WX    TMP DP  RH WIND       PRES   REMARKS
CASA GRANDE    CLEAR     70  34  26 W7        29.82R
GILA BEND      CLEAR     72  29  20 SW7       29.77R
$$

AZZ503-504-507>509-300500-
SOUTHEAST ARIZONA

CITY           SKY/WX    TMP DP  RH WIND       PRES   REMARKS
TUCSON         PTCLDY    68  31  25 W5        29.88R
DAVIS-MONTHAN  CLEAR     67  33  27 W7        29.86S
NOGALES        CLEAR     60  33  36 CALM      29.93R
SIERRA VISTA   CLEAR     57  29  34 SW9       29.96R
DOUGLAS        CLEAR     55  26  32 N10       29.92R
SAFFORD        CLEAR     62  31  31 NW7       29.86R
$$

AZZ020-021-025-026-031-300500-
SOUTHWEST ARIZONA

CITY           SKY/WX    TMP DP  RH WIND       PRES   REMARKS
YUMA           CLEAR     73  47  39 SW13      29.78R
$$

CAZ031-033-041-043-047-048-061-300500-
SOUTHERN CALIFORNIA

CITY           SKY/WX    TMP DP  RH WIND       PRES   REMARKS
DOWNTOWN L.A.  CLEAR     58  50  75 CALM      29.91S
L.A. AIRPORT   PTCLDY    57  51  80 SW3       29.92S
SAN DIEGO      CLOUDY    62  51  67 W10       29.97R
BURBANK        CLEAR     58  48  69 SE7       29.90S
ONTARIO        MOCLDY    59  50  72 SW10      29.92R
RIVERSIDE      CLOUDY    60  50  69 W9        29.91R
PALM SPRINGS   CLEAR     75  41  29 NW18      29.75R
EL CENTRO NAS  CLEAR    N/A N/A N/A W22       29.78R
IMPERIAL       CLEAR     73  45  36 W21G29    29.74S
BLYTHE         CLEAR     79  41  25 SW21      29.72R
NEEDLES        PTCLDY    76  39  26 W8        29.70R
$$

NVZ020-UTZ003-300500-
SOUTHERN NEVADA-UTAH

CITY           SKY/WX    TMP DP  RH WIND       PRES   REMARKS
LAS VEGAS      PTCLDY    71  31  22 SW5       29.67S
SALT LAKE CITY MOCLDY    49  38  65 N10       29.85R
$$

NMZ009-TXZ055-300500-
NEW MEXICO-WEST TEXAS

CITY           SKY/WX    TMP DP  RH WIND       PRES   REMARKS
ALBUQUERQUE    CLOUDY    49  38  65 S10       29.89R
EL PASO        PTCLDY    66  27  23 NW13      29.86R
$$


........................KEY........................
SKY/WX - SKY CONDITION/WEATHER
TMP    - TEMPERATURE IN FAHRENHEIT
DP     - DEW POINT IN FAHRENHEIT
RH     - RELATIVE HUMIDITY IN PERCENT
WIND   - DIRECTION AND SPEED IN MILES PER HOUR (MPH)
VRB    - VARIABLE WIND DIRECTION
PRES   - MEAN SEA LEVEL PRESSURE IN INCHES OF MERCURY
         F - FALLING PRESSURE   R - RISING PRESSURE
         S - STEADY PRESSURE
VSB    - VISIBILITY IN MILES
HX     - HEAT INDEX IN FAHRENHEIT
WCI    - WIND CHILL INDEX IN FAHRENHEIT
TC     - TEMPERATURE IN CELSIUS WHICH IS ALSO KNOWN AS
         TEMPERATURE IN CENTIGRADE
AFB    - AIR FORCE BASE
         LUKE AFB IS LUKE AIR FORCE BASE
         DAVIS-MONTHAN IS DAVIS-MONTHAN AIR FORCE BASE
NAS    - NAVAL AIR STATION
         EL CENTRO NAS IS EL CENTRO NAVAL AIR STATION
N/A    - NOT AVAILABLE





USA.gov is the U.S. government's official web portal to all federal, state and local government web resources and services.